Regional Weather Roundup
Issued by NWS

Home | Current Version | Previous Version | Graphics & Text | Print | Product List | Glossary On
Versions: 1 2 3 4 5 6 7 8 9 10 11 12 13 14 15 16 17 18 19 20 21 22 23 24 25 26 27 28 29 30 31 32 33 34 35 36 37 38 39 40 41 42 43 44 45 46 47 48 49 50
160
ASUS43 KDMX 220806
RWRIA

WEATHER ROUNDUP FOR IOWA
NATIONAL WEATHER SERVICE DES MOINES IA
300 AM CDT THU JUN 22 2017

NOTE: "FAIR" INDICATES FEW OR NO CLOUDS BELOW 12,000 FEET WITH NO
SIGNIFICANT WEATHER AND/OR OBSTRUCTIONS TO VISIBILITY.

* - THESE STATIONS ARE NOT NWS STATIONS...THUS NOT UNDER NWS
QUALITY CONTROL.  THEY ALSO DO NOT REPORT WEATHER SUCH
AS PRECIPITATION OR FOG.

IAZ001>003-012>014-020>022-031>034-043>046-220900-
   NORTHWEST IOWA

CITY           SKY/WX    TMP DP  RH WIND       PRES   REMARKS
CARROLL *      MOCLDY    77  63  61 SW21G36   29.68F
CHEROKEE *     CLOUDY    74  62  67 S8        29.65F
DENISON *      CLEAR     77  63  61 S14G22    29.72R
LE MARS *      CLOUDY    75  64  69 S8        29.64F
ORANGE CITY *  CLOUDY    73  64  73 S9        29.64F
SHELDON *      CLOUDY    75  63  64 S10       29.62F
SIOUX CITY     CLOUDY    80  60  50 SE3       29.65S HX  81
SPENCER        CLEAR     75  63  66 S6        29.66F
STORM LAKE *   CLEAR     75  61  60 SW16G22   29.67S
$$

IAZ055>058-069>071-079>083-090>094-220900-
   SOUTHWEST IOWA

CITY           SKY/WX    TMP DP  RH WIND       PRES   REMARKS
ATLANTIC *     CLEAR     75  63  64 S13G20    29.73S
AUDUBON *      CLEAR     75  64  69 S16       29.74S
COUNCIL BLFS * MOCLDY    77  64  65 S16       29.71F
CRESTON *      CLOUDY    72  64  78 S14       29.80F
HARLAN  *      CLEAR     75  63  64 S10       29.75S
LAMONI         CLOUDY    74  63  68 S12       29.82S
RED OAK *      CLOUDY    75  63  64 S12G18    29.74S
SHENANDOAH *   CLOUDY    75  63  64 S9        29.74F
$$

IAZ047>049-059>061-072>074-084-220900-
   CENTRAL IOWA

CITY           SKY/WX    TMP DP  RH WIND       PRES   REMARKS
AMES           CLEAR     78  64  61 SW20G26   29.70F HX  80
ANKENY *       CLOUDY    79  64  61 S13G24    29.74F HX  81
BOONE *        PTCLDY    79  63  57 SW17G30   29.70F HX  80
CHARITON *     CLOUDY    75  61  60 S14       29.80S
DES MOINES     PTCLDY    77  64  64 S15       29.74F
GRINNELL*      CLEAR     73  64  71 S12       29.78F
KNOXVILLE *    CLOUDY    75  61  60 S15G24    29.76F
MARSHALLTOWN   PTCLDY    76  65  68 S22G30    29.70F
NEWTON *       CLEAR     75  64  69 S15       29.76F
PELLA *        CLEAR     76  62  60 S13G21    29.78F
PERRY *          N/A     78  60  54 S15G26    29.72F
$$

IAZ004>006-015-016-023>025-035-036-220900-
   NORTH CENTRAL IOWA

CITY           SKY/WX    TMP DP  RH WIND       PRES   REMARKS
ALGONA *       MOCLDY    72  68  88 E7        29.69F
CLARION *        N/A     73  66  78 S13       29.68R
ESTHERVILLE    CLOUDY    70  67  90 CALM      29.67S
FORT DODGE *   CLOUDY    77  63  61 S18       29.68F
MASON CITY     TSTM      71  65  81 E12       29.74F
FOREST CITY *  CLOUDY    70  63  78 S8        29.70F
WEBSTER CITY * PTCLDY    77  64  65 SW20G26   29.67F
IOWA FALLS *   MOCLDY    77  65  65 S21G28    29.70F
$$

IAZ007>011-017>019-026>030-037>042-050>054-066-220900-
   NORTHEAST IOWA

CITY           SKY/WX    TMP DP  RH WIND       PRES   REMARKS
CEDAR RAPIDS   CLOUDY    74  68  81 S15G24    29.77F
CHARLES CITY * HVY RAIN  72  72 100 W21G26    29.77R
CLINTON *      PTCLDY    77  68  73 SW17      29.80F
DECORAH *      CLOUDY    75  66  73 SW18G35   29.71F
DUBUQUE        CLOUDY    76  65  68 SW15      29.78R
MONTICELLO *   CLOUDY    75  66  73 SW13G21   29.77S
OELWEIN *      CLOUDY    75  66  73 SE5G16    29.77R
WATERLOO       CLOUDY    76  63  64 S21       29.69F
$$

IAZ064-065-067-068-078-220900-
   EAST CENTRAL IOWA

CITY           SKY/WX    TMP DP  RH WIND       PRES   REMARKS
DAVENPORT      PTCLDY    77  66  68 S15G24    29.81F
IOWA CITY      CLOUDY    76  66  71 S10       29.80F
MT. PLEASANT * CLEAR     76  64  67 S14       29.84S
MUSCATINE *    CLOUDY    77  66  69 S12       29.81F
QUAD CITIES    PTCLDY    78  66  66 SW12      29.81F HX  80
$$

IAZ062-063-075>077-085>089-095>099-220900-
   SOUTHEAST IOWA

CITY           SKY/WX    TMP DP  RH WIND       PRES   REMARKS
BURLINGTON     CLEAR     76  68  76 S14       29.84F
FAIRFIELD *    CLEAR     75  64  69 S9G16     29.81F
FORT MADISON * CLOUDY    77  66  69 S9        29.86S
KEOKUK *       CLOUDY    75  68  78 S8        29.85F
OSKALOOSA *      N/A     71  64  77 S9        29.80F
CENTERVILLE *    N/A     73  64  73 S12       29.84S
OTTUMWA        CLEAR     72  66  81 S8        29.80F
WASHINGTON *   CLOUDY    73  66  78 S10       29.82F
$$

ABBREVIATIONS USED IN REMARKS
   TC - TEMPERATURES IN CELSIUS
  WCI - WIND CHILL INDEX
   HX - HEAT INDEX
  VSB - VISIBILITY
$$





USA.gov is the U.S. government's official web portal to all federal, state and local government web resources and services.